Concord, CA

3:52 AM PST on December 13, 2017 (GMT -0800)
Buchanan

Weather History for KCCR - March, 2013

Change the Weather History Date:

Saturday, March 2, 2013

  Actual Average Record
Temperature  
Mean Temperature 58 °F 54 °F  
Max Temperature 69 °F 64 °F 73 °F (2016)
Min Temperature 47 °F 45 °F 34 °F (2012)
Degree Days  
Heating Degree Days 7    
Month to date heating degree days 14  
Since 1 July heating degree days 1972  
Cooling Degree Days 0    
Month to date cooling degree days 0  
Year to date cooling degree days 0  
Growing Degree Days 8 (Base 50)    
Moisture  
Dew Point 47 °F    
Average Humidity 69    
Maximum Humidity 86    
Minimum Humidity 52    
Precipitation  
Precipitation 0.00 in - 0.58 in (2009)
Month to date precipitation 0.00  
Year to date precipitation 0.72  
Since 1 July precipitation 10.36  
Sea Level Pressure  
Sea Level Pressure 30.10 in    
Wind  
Wind Speed 3 mph (WSW)    
Max Wind Speed 14 mph    
Max Gust Speed 16 mph    
Visibility 10 miles    
Events      
T = Trace of Precipitation, MM = Missing Value Source: NWS Daily Summary

Daily Weather History Graph

Daily Weather History Graph

Search for Another Location

Airport or City:

Trip Planner

Search our weather history database for the weather conditions in past years. The results will help you decide how hot, cold, wet, or windy it might be!

Date:

Astronomy

Mar. 02, 2013 Rise Set
Actual Time 6:38 AM PST 6:03 PM PST
Civil Twilight 6:11 AM PST 6:29 PM PST
Nautical Twilight 5:41 AM PST 6:59 PM PST
Astronomical Twilight 5:10 AM PST 7:30 PM PST
Moon 11:42 PM PST (3/2) 9:15 AM PST (3/2)
Length of Visible Light 12h 17m
Length of Day
11h 25m
Waning Gibbous, 73% of the Moon is Illuminated
Mar 2
Waning Gibbous
Mar 4
Last Quarter
Mar 11
New
Mar 19
First Quarter
Mar 27
Full

Hourly Weather History & Observations

Time (PST) Temp. Dew Point Humidity Pressure Visibility Wind Dir Wind Speed Gust Speed Precip Events Conditions
1:53 AM 51.1 °F 43.0 °F 74% 30.20 in 10.0 mi SSE 3.5 mph - N/A   Clear
2:53 AM 50.0 °F 43.0 °F 77% 30.18 in 10.0 mi South 3.5 mph - N/A   Clear
4:53 AM 48.0 °F 43.0 °F 83% 30.17 in 10.0 mi Calm Calm - N/A   Clear
5:53 AM 46.9 °F 42.1 °F 83% 30.17 in 10.0 mi Calm Calm - N/A   Clear
7:53 AM 50.0 °F 45.0 °F 83% 30.18 in 10.0 mi Calm Calm - N/A   Clear
8:53 AM 53.1 °F 46.0 °F 77% 30.17 in 10.0 mi Calm Calm - N/A   Clear
9:53 AM 57.9 °F 46.9 °F 67% 30.17 in 10.0 mi Calm Calm - N/A   Clear
10:53 AM 63.0 °F 50.0 °F 63% 30.16 in 10.0 mi North 6.9 mph - N/A   Clear
11:53 AM 66.0 °F 48.9 °F 54% 30.13 in 10.0 mi Variable 4.6 mph - N/A   Clear
12:53 PM 66.0 °F 51.1 °F 59% 30.11 in 10.0 mi NE 5.8 mph - N/A   Clear
1:53 PM 66.9 °F 50.0 °F 54% 30.08 in 10.0 mi NW 4.6 mph - N/A   Clear
2:53 PM 69.1 °F 51.1 °F 53% 30.05 in 10.0 mi Variable 3.5 mph - N/A   Overcast
3:53 PM 66.0 °F 51.1 °F 59% 30.04 in 10.0 mi North 3.5 mph - N/A   Overcast
4:53 PM 64.9 °F 52.0 °F 63% 30.03 in 10.0 mi Calm Calm - N/A   Clear
5:53 PM 64.0 °F 51.1 °F 63% 30.04 in 10.0 mi WNW 4.6 mph - N/A   Clear
6:53 PM 63.0 °F 48.9 °F 60% 30.05 in 10.0 mi Calm Calm - N/A   Clear
7:53 PM 62.1 °F 50.0 °F 65% 30.04 in 10.0 mi Calm Calm - N/A   Overcast
8:53 PM 61.0 °F 46.9 °F 60% 30.04 in 10.0 mi SW 5.8 mph - N/A   Mostly Cloudy
9:53 PM 60.1 °F 45.0 °F 57% 30.05 in 10.0 mi West 11.5 mph - N/A   Clear
10:53 PM 59.0 °F 44.1 °F 58% 30.05 in 10.0 mi SSW 4.6 mph - N/A   Mostly Cloudy
11:53 PM 57.0 °F 45.0 °F 64% 30.06 in 10.0 mi SW 5.8 mph - N/A   Mostly Cloudy